www.pogodaiklimat.ru

Погода и климат >> Архив погоды >> Россия >> Нижегородская область >> Выкса


ПОГОДА в Выксе

  • Прогноз погоды в Выксе
  • Монитор погоды в Выксе
  • Климат города

АРХИВ ПОГОДЫ в Выксе

Время (UTC), дата Ветер
(напр.,м/с)
 
Видим.   Явления Облачность Т
(С)
Тd
(С)
f
(%)
Тe
(С)
Тes
(С)
Комфортность P
(гПа)
Po
(гПа)
Тmin
(С)
Tmax
(С)
R
(мм)
R24
(мм)
S
(см)
06 14.02 СВ 1-1
{2}
10 км ясно -15.7 -16.3 95 -18 -17 1032.3 1016.9
09 14.02 СЗ 2-2
{3}
10 км ясно -8.9 -11.8 79 -13 -10 1033.6 1018.6
12 14.02 В 4-7
{7}
10 км ясно -3.0 -12.2 49 -8 -8 1032.8 1018.1
15 14.02 В 3-5
{7}
10 км ясно -5.9 -11.6 64 -11 -11 1034.0 1019.1 -3.0
18 14.02 ЮВ 1-3
{6}
10 км ясно -9.9 -12.5 81 -12 -12 1034.9 1019.7
21 14.02 ЮВ 1-2
{3}
10 км ясно -11.7 -13.7 85 -14 -14 1036.2 1020.9
00 15.02 ЮВ 1-2
{3}
10 км ясно -13.7 -15.0 90 -16 -16 1037.0 1021.6
03 15.02 ЮВ 2-3
{3}
10 км ясно -14.7 -16.7 85 -20 -20 1037.5 1022.1 -14.8 17
06 15.02 ЮВ 1-3
{3}
10 км 6/0
[Ci fib]
-14.5 -16.5 85 -17 -16 1038.0 1022.5
09 15.02 Ю 2-3
{5}
10 км 3/0
[Ac trans]
-7.7 -13.7 62 -12 -9 1037.6 1022.5
12 15.02 Ю 2-4
{4}
10 км 6/0
[Ac trans]
-5.1 -12.5 56 -9 -8 1037.7 1022.8
15 15.02 ЮВ 1-2
{4}
10 км ясно -8.4 -13.1 69 -11 -11 1037.9 1022.8 -5.1
18 15.02 Ю 1-3
{3}
10 км ясно -11.9 -14.6 80 -14 -14 1038.5 1023.2
21 15.02 Ю 2-4
{4}
10 км 10/0
[As op]
-9.4 -11.9 82 -14 -14 1038.3 1023.1
00 16.02 Ю 2-4
{4}
10 км 10/0
[As op]
-8.7 -11.6 79 -13 -13 1037.8 1022.8
03 16.02 ЮВ 2-4
{4}
10 км 10/0
[As op]
-8.4 -11.5 78 -13 -13 1037.8 1022.6 -12.0 16
06 16.02 Ю 2-4
{5}
10 км слабый снег 10/10 300 м
[Sc]
-7.5 -10.1 82 -12 -12 1037.1 1022.1
09 16.02 Ю 3-5
{6}
10 км слабый снег 10/10 330 м
[Sc]
-5.6 -9.0 77 -11 -11 1036.6 1021.7
12 16.02 Ю 3-6
{7}
10 км слабый снег 10/10 420 м
[Sc]
-3.8 -8.3 71 -9 -9 1036.4 1021.6
15 16.02 Ю 2-4
{7}
10 км слабый снег 10/10 300 м
[Sc]
-3.6 -8.0 71 -7 -7 1036.4 1021.6 -3.6 0.0
18 16.02 Ю 2-3
{4}
10 км {снег} 10/0
[As op]
-3.9 -8.4 71 -8 -8 1035.8 1021.0
21 16.02 Ю 2-4
{5}
10 км 10/0
[As op]
-4.7 -9.1 71 -9 -9 1035.0 1020.2
00 17.02 Ю 2-5
{5}
10 км 10/10 300 м
[Sc]
-5.5 -9.7 72 -10 -10 1034.6 1019.7
03 17.02 Ю 2-5
{6}
10 км 10/10 270 м
[Sc]
-6.0 -10.4 71 -10 -10 1033.2 1018.3 -6.1 0.0 16
06 17.02 Ю 3-5
{6}
10 км слабый снег 9/9 600 м
[Sc]
-6.2 -10.2 73 -12 -12 1032.3 1017.4 -6.3
09 17.02 Ю 3-6
{8}
10 км слабый снег 10/10 360 м
[Sc]
-4.6 -8.5 74 -10 -10 1031.3 1016.6
12 17.02 Ю 2-6
{9}
10 км слабый снег 9/9 600 м
[Sc]
-3.6 -7.6 74 -8 -7 1029.9 1015.2
15 17.02 Ю 2-6
{7}
10 км слабый снег 10/10 270 м
[Sc]
-4.7 -8.7 74 -9 -9 1029.2 1014.5 -3.6 0.2
18 17.02 Ю 3-5
{7}
10 км слабый снег 10/10 300 м
[Sc]
-5.1 -8.8 75 -10 -10 1028.3 1013.6
21 17.02 Ю 2-4
{7}
10 км 10/10 270 м
[Sc]
-5.3 -9.4 73 -9 -9 1027.4 1012.5
00 18.02 ЮВ 2-4
{6}
10 км слабый снег 10/10 300 м
[Sc]
-5.5 -10.1 70 -10 -10 1026.3 1011.5
03 18.02 Ю 2-5
{6}
10 км слабый снег 10/10 270 м
[Sc]
-6.9 -10.6 75 -11 -11 1025.5 1010.7 -7.0 0.3 17
06 18.02 Ю 2-5
{5}
4000 м слабый снег 10/0
[As op]
-7.3 -9.4 85 -12 -12 1024.4 1009.5 -7.4
09 18.02 Ю 2-5
{9}
10 км слабый снег 10/0
[As op]
-5.8 -8.8 79 -10 -9 1023.7 1008.9
12 18.02 Ю 2-4
{5}
4000 м слабый снег 10/0
[As op]
-4.9 -7.7 81 -9 -9 1021.7 1007.1
15 18.02 ЮЗ 1-2
{4}
10 км слабый снег 10/0
[As op]
-5.4 -6.8 90 -8 -8 1020.8 1006.1 -4.9 2
18 18.02 Ю 1-2
{3}
10 км слабый снег 10/0
[As op]
-5.9 -7.4 89 -8 -8 1020.6 1005.9
21 18.02 Ю 1-1
{3}
10 км слабый снег 10/0
[As op]
-7.1 -8.4 90 -10 -10 1020.0 1005.3
00 19.02 Ю 1-2
{2}
10 км слабый снег 10/0
[As op]
-7.6 -8.9 90 -10 -10 1019.7 1004.9
03 19.02 Ю 1-2
{3}
10 км слабый снег 10/10 400 м
[Sc]
-8.4 -9.9 89 -11 -11 1018.9 1004.1 -8.5 2 20
06 19.02 Ю 1-3
{4}
10 км {снег} 10/10 330 м
[Sc]
-7.0 -8.3 90 -9 -9 1017.8 1003.1
09 19.02 Ю 2-3
{5}
10 км слабый снег 10/0
[As op]
-4.2 -6.8 82 -8 -8 1017.6 1003.0
12 19.02 Ю 2-5
{5}
10 км {снег} 10/0
[As op]
-3.1 -6.6 77 -7 -7 1018.0 1003.5
15 19.02 Ю 1-2
{5}
10 км слабый снег 10/0
[As op]
-3.3 -5.4 85 -6 -6 1017.2 1002.7 -3.1 0.3
18 19.02 Ю 1-2
{3}
10 км слабый снег 10/0
[As op]
-4.0 -5.2 91 -6 -6 1017.2 1002.6
21 19.02 ЮЗ 1-2
{2}
10 км слабый снег 10/0
[As op]
-3.9 -4.7 94 -6 -6 1016.3 1001.8
00 20.02 ЮЗ 1-1
{2}
10 км слабый снег 10/0
[As op]
-4.8 -5.4 96 -7 -7 1016.2 1001.7
03 20.02 З 1-1
{2}
10 км слабый снег 10/0
[As op]
-4.3 -5.2 93 -7 -7 1016.2 1001.7 -4.8 1 21
06 20.02 З 1-2
{2}
10 км {снег} 9/0
[Ac trans]
-6.7 -7.5 94 -9 -9 1016.4 1001.8 -6.8
09 20.02 СЗ 1-3
{3}
10 км 10/10 400 м
[Sc]
-4.1 -6.4 84 -6 -6 1016.3 1001.8
12 20.02 СЗ 4-5
{5}
2000 м снег 10/10 270 м
[Sc]
-4.9 -7.0 85 -11 -11 1016.3 1001.8
15 20.02 З 2-3
{5}
10 км слабый снег 10/10 300 м
[Sc]
-5.5 -8.1 82 -10 -10 1016.7 1002.1 -4.1 0.3
18 20.02 З 2-3
{6}
10 км {снег} 9/0
[Ac As]
-8.4 -9.9 89 -13 -13 1017.6 1002.9
21 20.02 З 2-3
{5}
10 км слабый снег 10/10 300 м
[Sc]
-8.6 -10.1 89 -13 -13 1017.8 1003.0
00 21.02 З 2-4
{5}
10 км слабый снег 10/10 270 м
[Sc]
-10.6 -11.9 90 -15 -15 1018.6 1003.7

 

Местоположение метеостанции Выкса (Нижегородская область, Россия): широта 55.33 долгота 42.12 высота над уровнем моря 114 м.

В архиве по умолчанию представлена погода в Выксе за последнюю неделю. Архивные данные за месяц целиком и за предыдущие месяцы, начиная с января 2011 года, Вы можете получить, выбрав интересующий диапазон дат из раскрывающегося списка и нажав кнопку "Ввод!".

Внимание! Время в таблицах - всемирное. Для получения местного времени необходимо прибавить поправку, которая в Выксе равна 3 ч.

Смотрите также архив погоды в соседних городах и на ближайших метеорологических станциях:

Погода в Муроме (Владимирская область, Россия) (31 км)
Погода в Елатьме (Рязанская область, Россия) (48 км)
Погода в Павлово (Нижегородская область, Россия) (90 км)
Погода в Вязниках (Владимирская область, Россия) (97 км)
Погода в Гусь-Хрустальный (Владимирская область, Россия) (97 км)
Погода в Туме (Рязанская область, Россия) (102 км)
Погода в Арзамасе (Нижегородская область, Россия) (105 км)
Погода в Темникове (Мордовия, Россия) (105 км)
Погода в Сасово (Рязанская область, Россия) (109 км)
Погода в Коврове (Владимирская область, Россия) (124 км)

Пояснения к столбцам:

Ветер - указаны скорость ветра в м/с - средняя за 10 мин, порывы в срок и между сроками (в фигурных скобках) и направление, откуда дует ветер: С - северный, СВ - северо-восточный, В - восточный, ЮВ - юго-восточный, Ю - южный, ЮЗ - юго-западный, З - западный, СЗ - северо-западный.
Видимость - горизонтальная дальность видимости в метрах или километрах. При видимости от 1 до 10 км при отсутствии осадков обычно наблюдается дымка, при ухудшении видимости до 1 км и менее - туман. В сухую погоду видимость может ухудшаться дымом, пылью или мглою.
Явления - указаны атмосферные явления, наблюдавшиеся в срок или в последний час перед сроком; фигурными скобками обозначены явления, наблюдавшиеся между сроками (за 1-3 часа до срока); квадратными скобками обозначены град или гололедные отложения с указанием их диаметра в мм.
Облачность - указаны через наклонную черту общая и нижняя облачность в баллах и высота нижней границы облаков в метрах; квадратными скобками обозначены формы облаков: Ci - перистые, Cs - перисто-слоистые, Cc - перисто-кучевые, Ac - высококучевые, As - высокослоистые, Sc - слоисто-кучевые, Ns - слоисто-дождевые, Cu - кучевые, Cb - кучево-дождевые. Подробнее классификацию облаков см. в Атласе облаков (PDF).
T - Температура воздуха - температура, измеренная на высоте 2 м над землей.
Td - Температура точки росы - температура, при понижении до которой содержащийся в воздухе водяной пар достигнет насыщения.
f - Относительная влажность воздуха - влажноcть воздуха, измеренная на высоте 2 м над землей.
Te - Эффективная температура - температура, которую ощущает одетый по сезону человек в тени. Характеристика душности погоды. При расчете учитывается влияние влажности воздуха и скорости ветра на теплоощущения человека.
Tes - Эффективная температура на солнце - температура, которую ощущает человек, с поправкой на солнечный нагрев. Характеристика знойности погоды. Зависит от высоты солнца над горизонтом, облачности и скорости ветра. Ночью, в пасмурную погоду, а также при ветре 12 м/с и более поправка равна нулю.
P - Атмосферное давление - приведенное к уровню моря атмосферное давление.
Po - Атмосферное давление - измеренное на уровне метеостанции атмосферное давление.
Tmin - Минимальная температура - минимум температуры воздуха на высоте 2 м над землей.
Tmax - Максимальная температура - максимум температуры воздуха на высоте 2 м над землей.
R - Количество осадков - Количество выпавших осадков за период времени, мм. При наведении курсора мыши на число - период времени, за который выпало указанное количество осадков.
R24 - Количество осадков - Количество выпавших осадков за 24 часа, мм.
S - Снежный покров - Высота снежного покрова, см. При наведении курсора мыши на число - состояние снежного покрова и степень покрытия местности в баллах.